Location: Unspecified
(0.0000°N, 0.0000°E)
Time: 06:05:38
(UTC+02:00)

GPS 2-12 Rocket1 - Visible Passes

Search period start: 27 April 2015 00:00
Search period end: 07 May 2015 00:00
Orbit: 589 x 657 km, 20.0° (Epoch: 26 April)

Date Brightness Start Highest point End Pass type
(mag) Time Alt. Az. Time Alt. Az. Time Alt. Az.
27 Apr 3.0 21:23:34 10° WSW 21:28:26 80° SSE 21:29:12 62° E visible
28 Apr 5.7 06:08:15 10° N 06:09:25 11° NNE 06:10:39 10° NNE visible
28 Apr 3.5 21:40:50 10° W 21:45:36 59° NNW 21:45:50 58° N visible
29 Apr 5.4 06:23:59 10° NNW 06:26:49 17° NNE 06:29:45 10° ENE visible
29 Apr 3.2 20:14:18 10° WSW 20:19:07 72° SSE 20:23:57 10° ENE visible
29 Apr 4.5 21:58:24 10° W 22:02:30 34° NNW 22:02:30 34° NNW visible
30 Apr 4.8 06:40:27 11° NW 06:44:09 27° NNE 06:47:57 10° ENE visible
30 Apr 3.5 20:31:30 10° WSW 20:36:18 65° NNW 20:41:05 10° ENE visible
30 Apr 5.4 22:16:22 10° WNW 22:19:09 20° NW 22:19:09 20° NW visible
01 May 6.1 05:19:53 12° NE 05:19:53 12° NE 05:20:25 10° NE visible
01 May 3.8 06:57:03 10° NW 07:01:23 47° NNE 07:05:40 10° E visible
01 May 4.4 20:49:01 10° W 20:53:30 37° NNW 20:57:58 10° NE visible
01 May 6.0 22:34:49 10° NW 22:35:46 12° NW 22:35:46 12° NW visible
02 May 5.3 05:36:28 21° NE 05:36:28 21° NE 05:38:40 10° ENE visible
02 May 3.0 07:14:03 10° WNW 07:18:34 86° NNE 07:23:01 10° ESE visible
02 May 5.2 21:06:53 10° WNW 21:10:45 23° NNW 21:14:34 10° NE visible
03 May 4.3 05:53:06 37° NE 05:53:06 37° NE 05:56:27 10° E visible
03 May 3.3 07:31:20 10° W 07:35:44 51° SSW 07:40:04 10° SE visible
03 May 5.7 21:25:14 10° NW 21:28:05 15° NNW 21:30:52 10° NNE visible
04 May 3.1 06:09:44 71° ENE 06:09:44 71° ENE 06:13:51 10° ESE visible
04 May 5.9 21:44:41 10° NNW 21:45:31 10° NNW 21:46:17 10° N visible
05 May 3.0 06:26:20 57° SSW 06:26:30 58° SSW 06:30:56 10° ESE visible
06 May 3.8 06:42:54 31° SW 06:43:41 33° SSW 06:47:45 10° SE visible
06 May 5.9 20:34:50 10° NNW 20:36:08 11° NNW 20:37:21 10° N visible
